Weather History for KFFO - September, 2012

Change the Weather History Date:

Thursday, September 27, 2012

  Actual Average Record
Temperature  
Mean Temperature 62 °F -  
Max Temperature 68 °F 70 °F 86 °F (1998)
Min Temperature 56 °F 46 °F 41 °F (2000)
Degree Days  
Heating Degree Days 2    
Growing Degree Days 12 (Base 50)    
Moisture  
Dew Point 61 °F    
Average Humidity 91    
Maximum Humidity 100    
Minimum Humidity 77    
Precipitation  
Precipitation 0.05 in - - ()
Sea Level Pressure  
Sea Level Pressure 30.11 in    
Wind  
Wind Speed 4 mph (SSW)    
Max Wind Speed 12 mph    
Max Gust Speed -    
Visibility 7 miles    
Events Rain    
Averages and records for this station are not official NWS values.
T = Trace of Precipitation, MM = Missing Value Source: NWS Daily Summary

Daily Weather History Graph

Daily Weather History Graph

Search for Another Location

Airport or City:

Trip Planner

Search our weather history database for the weather conditions in past years. The results will help you decide how hot, cold, wet, or windy it might be!

Date:

Astronomy

Sep. 27, 2012 Rise Set
Actual Time 7:29 AM EDT 7:24 PM EDT
Civil Twilight 7:02 AM EDT 7:51 PM EDT
Nautical Twilight 6:30 AM EDT 8:22 PM EDT
Astronomical Twilight 5:58 AM EDT 8:54 PM EDT
Moon 5:55 PM EDT (9/27) 4:57 AM EDT (9/27)
Length of Visible Light 12h 49m
Length of Day
11h 55m
Waxing Gibbous, 94% of the Moon is Illuminated
Sep 27
Waxing Gibbous
Sep 29
Full
Oct 8
Last Quarter
Oct 15
New
Oct 21
First Quarter

Hourly Weather History & Observations

Time (EDT) Temp. Dew Point Humidity Pressure Visibility Wind Dir Wind Speed Gust Speed Precip Events Conditions
12:55 AM 64.8 °F 64.4 °F 99% 30.11 in 3.0 mi Calm Calm - N/A   Overcast
1:10 AM 64.4 °F 64.4 °F 100% 30.11 in 5.0 mi SE 3.5 mph - N/A   Mostly Cloudy
1:55 AM 64.9 °F 64.9 °F 100% 30.11 in 3.0 mi Calm Calm - N/A   Overcast
2:15 AM 64.4 °F 64.4 °F 100% 30.11 in 6.0 mi Calm Calm - N/A   Mostly Cloudy
2:55 AM 64.4 °F 64.4 °F 100% 30.11 in 4.0 mi South 4.6 mph - N/A   Overcast
3:40 AM 64.4 °F 64.4 °F 100% 30.08 in 7.0 mi Calm Calm - N/A   Mostly Cloudy
3:55 AM 64.0 °F 64.0 °F 100% 30.08 in 6.0 mi Calm Calm - N/A   Overcast
4:55 AM 63.7 °F 63.7 °F 100% 30.09 in 6.0 mi South 6.9 mph - N/A   Overcast
5:32 AM 64.4 °F 64.4 °F 100% 30.10 in 6.0 mi Calm Calm - N/A   Light Drizzle
5:38 AM 64.4 °F 64.4 °F 100% 30.10 in 6.0 mi Calm Calm - N/A   Light Drizzle
5:55 AM 63.9 °F 63.9 °F 100% 30.10 in 6.0 mi Calm Calm - 0.00 in   Overcast
6:55 AM 64.0 °F 63.7 °F 99% 30.10 in 6.0 mi South 4.6 mph - N/A   Overcast
7:17 AM 64.4 °F 64.4 °F 100% 30.11 in 5.0 mi South 6.9 mph - N/A   Light Drizzle
7:55 AM 63.9 °F 63.5 °F 99% 30.11 in 4.0 mi South 5.8 mph - 0.00 in   Light Drizzle
8:10 AM 64.4 °F 64.4 °F 100% 30.12 in 8.0 mi South 5.8 mph - N/A   Mostly Cloudy
8:33 AM 64.4 °F 64.4 °F 100% 30.12 in 3.0 mi South 6.9 mph - N/A Rain Light Rain
8:45 AM 64.4 °F 64.4 °F 100% 30.12 in 3.0 mi South 5.8 mph - N/A Rain Light Rain
8:55 AM 63.9 °F 63.5 °F 99% 30.12 in 3.0 mi South 6.9 mph - 0.02 in Rain Light Rain
9:08 AM 64.4 °F 64.4 °F 100% 30.12 in 4.0 mi SSW 6.9 mph - N/A Rain Light Rain
9:58 AM 64.4 °F 64.0 °F 99% 30.12 in 4.0 mi SSW 8.1 mph - 0.03 in   Overcast
10:55 AM 65.3 °F 64.6 °F 98% 30.13 in 4.0 mi SW 9.2 mph - N/A   Overcast
11:55 AM 65.3 °F 63.0 °F 92% 30.13 in 4.0 mi SW 8.1 mph - N/A   Overcast
12:03 PM 64.4 °F 62.6 °F 94% 30.13 in 4.0 mi SW 8.1 mph - N/A   Light Drizzle
12:40 PM 64.4 °F 64.4 °F 100% 30.12 in 4.0 mi WSW 5.8 mph - N/A   Overcast
12:55 PM 65.3 °F 63.3 °F 93% 30.12 in 4.0 mi SW 3.5 mph - 0.00 in   Overcast
1:49 PM 66.2 °F 62.6 °F 88% 30.10 in 10.0 mi WSW 5.8 mph - N/A   Light Drizzle
1:55 PM 67.1 °F 62.1 °F 84% 30.10 in 7.0 mi WSW 4.6 mph - 0.00 in   Light Drizzle
2:20 PM 68.0 °F 60.8 °F 78% 30.10 in 7.0 mi WSW 3.5 mph - N/A   Overcast
2:29 PM 68.0 °F 60.8 °F 78% 30.09 in 7.0 mi SSW 5.8 mph - N/A   Overcast
2:34 PM 68.0 °F 62.6 °F 83% 30.09 in 7.0 mi SW 5.8 mph - N/A   Overcast
2:47 PM 66.2 °F 60.8 °F 83% 30.09 in 7.0 mi WNW 8.1 mph - N/A   Overcast
2:55 PM 66.7 °F 61.5 °F 83% 30.10 in 10.0 mi NW 5.8 mph - 0.00 in   Overcast
3:22 PM 66.2 °F 60.8 °F 83% 30.10 in 10.0 mi NW 4.6 mph - N/A   Overcast
3:38 PM 66.2 °F 60.8 °F 83% 30.10 in 10.0 mi NNE 9.2 mph - N/A   Overcast
3:55 PM 65.8 °F 59.9 °F 81% 30.10 in 10.0 mi NNE 9.2 mph - N/A   Overcast
4:01 PM 66.2 °F 59.0 °F 78% 30.10 in 10.0 mi NE 9.2 mph - N/A   Overcast
4:55 PM 65.1 °F 59.0 °F 81% 30.11 in 10.0 mi NNE 6.9 mph - N/A   Overcast
5:13 PM 64.4 °F 59.0 °F 83% 30.11 in 10.0 mi NNE 6.9 mph - N/A   Overcast
5:55 PM 64.6 °F 58.3 °F 80% 30.12 in 10.0 mi North 8.1 mph - N/A   Overcast
6:44 PM 64.4 °F 57.2 °F 77% 30.12 in 10.0 mi NNE 11.5 mph - N/A   Overcast
6:55 PM 63.5 °F 56.7 °F 78% 30.12 in 10.0 mi NNE 9.2 mph - N/A   Overcast
7:55 PM 61.7 °F 55.2 °F 79% 30.14 in 10.0 mi NNE 9.2 mph - N/A   Overcast
8:42 PM 60.8 °F 53.6 °F 77% 30.14 in 10.0 mi ENE 8.1 mph - N/A   Overcast
8:55 PM 60.4 °F 54.5 °F 81% 30.15 in 10.0 mi NNE 9.2 mph - N/A   Overcast
9:55 PM 59.2 °F 53.8 °F 82% 30.16 in 10.0 mi NNE 9.2 mph - N/A   Overcast
10:55 PM 57.4 °F 52.9 °F 85% 30.16 in 10.0 mi NE 6.9 mph - N/A   Overcast
11:55 PM 56.5 °F 52.7 °F 87% 30.16 in 10.0 mi East 4.6 mph - N/A   Overcast